Regional Weather Roundup
Issued by NWS Jackson, KY

Home | Current Version | Previous Version | Text Only | Print | Product List | Glossary Off
Versions: 1 2 3 4 5 6 7 8 9 10 11 12 13 14 15 16 17 18 19 20 21 22 23 24 25 26 27

000
ASUS43 KJKL 261510
RWRJKL

EAST KENTUCKY HOURLY WEATHER ROUNDUP
NATIONAL WEATHER SERVICE JACKSON KY
1100 AM EDT SAT MAY 26 2018

NOTE: "FAIR" INDICATES FEW OR NO CLOUDS BELOW 12,000 FEET WITH
NO SIGNIFICANT WEATHER AND/OR OBSTRUCTIONS TO VISIBILITY.

* THESE REPORTS ARE NOT UNDER NWS QUALITY CONTROL AND MAY NOT
  REPORT WEATHER SUCH AS PRECIPITATION AND FOG.

KYZ079-080-083-085-087-088-110-112-115-119-120-261600
...EASTERN KENTUCKY...

CITY           SKY/WX    TMP DP  RH WIND       PRES   REMARKS
JACKSON        PTSUNNY   76  68  76 VRB5      29.97S
LONDON           N/A     75  68  78 S8        29.97S
SOMERSET*      PTSUNNY   77  66  69 MISG      29.96F
MONTICELLO*      N/A     78  68  71 W12       29.97F
WILLIAMSBURG*    N/A     75  72  88 S6        29.97F
MIDDLESBORO*   CLOUDY    75  68  79 S6        29.98F
HARLAN APT*    CLOUDY    69  68  98 CALM      30.01S
PIKE CO APT*   DRIZZLE   69  69 100 S3        29.99S
BIG SANDY APT* PTSUNNY   75  70  84 CALM      29.97S
MOREHEAD APT*    N/A     79  68  69 VRB3      29.95F
ASHLAND*       LGT RAIN  76  70  82 SW7       29.93R
$$

KYZ035-036-041-042-044-050-067-078-099-261600
...CENTRAL KENTUCKY...

CITY           SKY/WX    TMP DP  RH WIND       PRES   REMARKS
MT STERLING*   PTSUNNY   77  70  78 SW6       29.95F
FLEMING/MASON*   N/A     80  67  66 CALM      29.93F
DANVILLE*        N/A     75  64  69 SW8       29.95S
LEXINGTON        N/A     78  69  73 SW7       29.93F
FRANKFORT        N/A     79  68  69 S5        29.90F
LOUISVILLE     PTSUNNY   80  69  69 SW8       29.89F
LEBANON*         N/A     77  68  73 S8        29.93S
GLASGOW*         N/A     77  67  70 SW5       29.93S
BOWLING GREEN    N/A     78  70  76 VRB6      29.92F
$$

KYZ091>093-OHZ055-061-077-WVZ005-015-034-035-042-261600
...SOUTHERN OHIO/WEST VIRGINIA...

CITY           SKY/WX    TMP DP  RH WIND       PRES   REMARKS
COVINGTON      PTSUNNY   76  67  73 SW6       29.90S
COLUMBUS       PTSUNNY   78  65  63 SW6       29.88S
DAYTON         PTSUNNY   77  68  73 SW10      29.89S
WILMINGTON       N/A     77  70  79 SW7       29.90S
HUNTINGTON     PTSUNNY   77  68  73 VRB5      29.93R
CHARLESTON     PTSUNNY   79  68  69 SW7       29.93R
PINEVILLE*     PTSUNNY   73  65  77 MISG      30.05S
BECKLEY        PTSUNNY   71  62  73 SW7       30.02S
BLUEFIELD      RAIN      63  63 100 W8        30.05F FOG
LOGAN CO APT*    N/A     73  68  83 CALM      29.98S
$$

VAZ002-007-008-TNZ017-027-036-066-071-261600
...SOUTHWEST VIRGINIA/EAST TENNESSEE...

CITY           SKY/WX    TMP DP  RH WIND       PRES   REMARKS
WISE*          RAIN      64  64 100 SW5       30.07S
JONESVILLE*    LGT RAIN  68  68 100 CALM      30.03S
ABINGDON*      RAIN      68  68 100 W5        30.05R
BRISTOL        HVY RAIN  67  67 100 SW5       30.02S VSB 1
MORRISTOWN*    CLOUDY    75  70  83 CALM      29.99F
SEVIERVILLE*   PTSUNNY   77  68  73 N5        29.97F
KNOXVILLE      PTSUNNY   75  69  81 W5        29.97F
LAFOLLETTE*    CLOUDY    75  68  78 CALM      30.01S
OAK RIDGE      LGT RAIN  74  70  87 W6        29.99F
CROSSVILLE     PTSUNNY   73  66  78 VRB3      30.01F
NASHVILLE      PTSUNNY   78  68  71 VRB6      29.95S
$$

...KEY TO REMARKS...
VSB - VISIBILITY IN MILES
WCI - WIND CHILL INDEX
HX  - HEAT INDEX

$$




USA.gov is the U.S. government's official web portal to all federal, state and local government web resources and services.